Change the Weather History Date:

Wednesday, February 25, 2015

  Actual Average Record
Temperature  
Mean Temperature 40 °F 39 °F  
Max Temperature 59 °F 50 °F 81 °F (1986)
Min Temperature 20 °F 28 °F -3 °F (1913)
Degree Days  
Heating Degree Days 25 26  
Month to date heating degree days 791 748  
Since 1 July heating degree days 3683 3764  
Cooling Degree Days 0 0  
Month to date cooling degree days 0 0  
Year to date cooling degree days 0 0  
Moisture  
Dew Point 22 °F    
Average Humidity 56    
Maximum Humidity 81    
Minimum Humidity 30    
Precipitation  
Precipitation 0.00 in 0.04 in 0.39 in (1993)
Month to date precipitation 0.12 1.02  
Year to date precipitation 1.32 1.65  
Sea Level Pressure  
Sea Level Pressure 29.92 in    
Wind  
Wind Speed 17 mph (West)    
Max Wind Speed 36 mph    
Max Gust Speed 43 mph    
Visibility 10 miles    
Events      
T = Trace of Precipitation, MM = Missing Value Source: NWS Daily Summary

Daily Weather History Graph

Daily Weather History Graph

Search for Another Location

Airport or City:

Trip Planner

Search our weather history database for the weather conditions in past years. The results will help you decide how hot, cold, wet, or windy it might be!

Date:

Astronomy

Feb. 25, 2015 Rise Set
Actual Time 7:08 AM CST 6:18 PM CST
Civil Twilight 6:42 AM CST 6:45 PM CST
Nautical Twilight 6:11 AM CST 7:16 PM CST
Astronomical Twilight 5:40 AM CST 7:47 PM CST
Moon 11:35 AM CST (2/25) 1:05 AM CST (2/25)
Length of Visible Light 12h 03m
Length of Day
11h 10m
Waxing Crescent, 50% of the Moon is Illuminated
Feb 25
Waxing Crescent
Mar 5
Full
Mar 13
Last Quarter
Mar 20
New
Mar 27
First Quarter

Hourly Weather History & Observations

Time (CST) Temp. Windchill Dew Point Humidity Pressure Visibility Wind Dir Wind Speed Gust Speed Precip Events Conditions
12:53 AM 28.0 °F 24.2 °F 19.0 °F 69% 29.90 in 10.0 mi SSE 3.5 mph - N/A   Clear
1:53 AM 25.0 °F 19.3 °F 18.0 °F 75% 29.90 in 10.0 mi SSW 4.6 mph - N/A   Clear
2:53 AM 23.0 °F 15.8 °F 17.6 °F 80% 29.87 in 10.0 mi South 5.8 mph - N/A   Clear
3:53 AM 24.1 °F 16.0 °F 18.0 °F 77% 29.87 in 10.0 mi SSW 6.9 mph - N/A   Clear
4:53 AM 24.1 °F 17.0 °F 18.0 °F 77% 29.86 in 10.0 mi SSE 5.8 mph - N/A   Clear
5:53 AM 24.1 °F 18.2 °F 19.0 °F 81% 29.85 in 10.0 mi SE 4.6 mph - N/A   Clear
6:53 AM 23.0 °F 17.0 °F 18.0 °F 81% 29.84 in 10.0 mi SSE 4.6 mph - N/A   Clear
7:53 AM 26.1 °F 20.5 °F 21.0 °F 81% 29.86 in 10.0 mi South 4.6 mph - N/A   Clear
8:53 AM 33.8 °F 29.6 °F 26.6 °F 75% 29.82 in 10.0 mi South 4.6 mph - N/A   Clear
9:53 AM 42.1 °F 37.1 °F 28.9 °F 60% 29.83 in 10.0 mi South 8.1 mph - N/A   Clear
10:53 AM 51.8 °F - 28.4 °F 41% 29.79 in 10.0 mi SSW 13.8 mph - N/A   Clear
11:53 AM 54.0 °F - 26.1 °F 34% 29.78 in 10.0 mi SW 18.4 mph - N/A   Clear
12:53 PM 55.9 °F - 25.0 °F 30% 29.75 in 10.0 mi WSW 11.5 mph - N/A   Clear
1:53 PM 57.9 °F - 26.1 °F 30% 29.73 in 10.0 mi West 16.1 mph - N/A   Mostly Cloudy
2:53 PM 50.0 °F - 37.4 °F 62% 29.76 in 10.0 mi North 24.2 mph - N/A   Overcast
3:53 PM 43.0 °F 32.2 °F 33.1 °F 68% 29.85 in 10.0 mi North 32.2 mph 39.1 mph N/A   Overcast
4:06 PM 43.0 °F 32.4 °F 32.0 °F 65% 29.83 in 10.0 mi North 31.1 mph 38.0 mph N/A   Overcast
4:13 PM 42.1 °F 30.6 °F 30.9 °F 65% 29.84 in 10.0 mi North 34.5 mph 40.3 mph N/A   Overcast
4:53 PM 39.0 °F 27.2 °F 28.9 °F 67% 29.91 in 10.0 mi North 29.9 mph 36.8 mph N/A   Overcast
5:53 PM 34.0 °F 19.9 °F 23.0 °F 64% 29.98 in 10.0 mi North 32.2 mph 40.3 mph N/A   Overcast
6:53 PM 28.9 °F 13.7 °F 19.0 °F 67% 30.05 in 10.0 mi North 28.8 mph 39.1 mph N/A   Overcast
7:53 PM 28.0 °F 12.0 °F 17.1 °F 63% 30.11 in 10.0 mi North 31.1 mph 39.1 mph N/A   Overcast
8:53 PM 27.0 °F 10.5 °F 15.1 °F 61% 30.15 in 10.0 mi North 31.1 mph 40.3 mph N/A   Overcast
9:53 PM 25.0 °F 8.9 °F 14.0 °F 63% 30.19 in 10.0 mi North 26.5 mph 38.0 mph N/A   Overcast
10:53 PM 21.9 °F 3.9 °F 10.9 °F 63% 30.23 in 10.0 mi North 29.9 mph 40.3 mph N/A   Overcast
11:53 PM 19.9 °F 1.5 °F 10.0 °F 65% 30.24 in 10.0 mi North 28.8 mph - N/A   Overcast